Location: Boksum
(53.1769°N, 5.7292°E)
Time: 11:43:21
(UTC+00:00)

Daily predictions for brighter satellites

Satellite Brightness Start Highest point End
(mag) Time Altitude Azimuth Time Altitude Azimuth Time Altitude Azimuth
Cosmos 2279 Rocket 4.0 15:50:00 10° N 15:56:17 68° ENE 16:02:31 10° SSE
Cosmos 494 Rocket 4.1 15:57:45 10° SSW 16:03:02 89° WNW 16:08:20 10° NNE
Okean-O 3.7 16:01:52 10° ESE 16:05:23 24° ENE 16:08:56 10° N
Cosmos 1634 Rocket 4.4 15:59:59 10° NNW 16:06:08 71° W 16:12:17 10° S
NOSS 2-2 (E) 4.3 16:02:37 10° W 16:06:21 42° NNW 16:10:58 10° NE
SL-08 R/B 4.4 16:02:41 10° N 16:07:23 45° WNW 16:11:59 10° SW
Landsat 5 4.1 16:04:36 10° N 16:08:28 54° WNW 16:12:26 10° SSW
Meteor 1-11 Rocket 4.0 16:02:39 10° N 16:08:34 56° ENE 16:14:24 10° SSE
Helios 1A Rocket 2.9 16:06:29 10° SSE 16:10:36 89° ENE 16:14:42 10° NNW
COSMOS 2455 3.6 16:05:04 10° WSW 16:10:51 45° NW 16:16:39 10° NE
ATLAS 2AS CENTAUR R/B 3.2 16:04:11 10° SW 16:12:14 82° NW 16:20:14 10° NE
Meteor 1-27 Rocket 4.4 16:09:35 10° SSE 16:14:46 35° E 16:20:03 10° NNE
H-2A R/B 3.8 16:13:16 10° N 16:16:45 27° WNW 16:20:13 10° WSW
Cosmos 2297 4.1 16:11:33 10° NNW 16:16:58 41° NE 16:22:19 10° ESE
SMAP 3.3 16:15:03 10° SE 16:19:31 48° ENE 16:24:01 10° N
Cosmos 1441 Rocket 4.4 16:17:39 10° NNE 16:20:39 21° ENE 16:23:35 10° ESE
Nadezhda 4 Rocket 4.5 16:14:54 10° SSE 16:20:43 40° E 16:26:32 10° NNE
SeaSat 1 4.2 16:19:19 10° NE 16:21:49 14° NNE 16:24:21 10° N
YAOGAN 1 4.1 16:20:15 10° E 16:22:50 16° NE 16:25:25 10° NNE
H-2A R/B 3.0 16:21:00 10° SE 16:24:29 41° ENE 16:27:59 10° N
AQUARIUS 4.3 16:23:55 10° SE 16:28:17 51° ENE 16:32:40 10° N
Cosmos 1733 Rocket 3.0 16:24:02 10° N 16:28:26 77° E 16:32:50 10° SSE
Meteor 1-28 Rocket 4.2 16:25:32 10° N 16:29:10 48° WNW 16:32:48 10° SW
ALOS 3.4 16:25:14 10° S 16:29:46 49° W 16:34:20 10° NNW
RESURS DK-1 2.4 16:27:49 10° SSW 16:31:55 68° ESE 16:35:45 12° NE
Cosmos 1269 Rocket 4.4 16:26:49 10° SW 16:32:05 67° WNW 16:37:25 10° NNE
NOSS 5 (C) 4.3 16:29:58 10° NW 16:33:04 82° NE 16:36:53 10° SE
COSMOS 2428 2.7 16:29:10 10° SSW 16:34:50 81° ESE 16:40:35 10° NNE
Genesis I 3.1 16:33:07 10° NW 16:37:02 67° NE 16:40:53 10° SE
Meteor 1-5 Rocket 4.3 16:31:37 10° NNW 16:37:13 82° W 16:42:37 10° S
ISS -0.8 16:37:06 10° WSW 16:39:24 17° SW 16:41:42 10° S
USA 215 3.5 16:33:27 13° ENE 16:39:24 59° SE 16:45:51 10° SW
Cosmos 292 Rocket 3.8 16:35:47 10° NNW 16:40:39 65° ENE 16:45:29 10° SE
Cosmos 1666 2.9 16:39:51 10° N 16:43:28 42° ENE 16:47:01 10° SE
Feng Yun 1-1 Rocket 4.1 16:38:39 10° SSE 16:44:02 80° ENE 16:49:29 10° NNW
Cosmos 1536 2.7 16:41:33 10° N 16:45:35 67° ENE 16:49:33 10° SSE
Cosmos 921 Rocket 3.4 16:42:04 10° N 16:46:06 40° ENE 16:50:11 10° SE
CZ-4B R/B 4.4 16:44:12 10° S 16:49:18 45° W 16:54:33 10° NNW
NOSS 0 Rocket 4.0 16:46:55 10° SSW 16:53:02 62° ESE 16:58:26 14° NE
NOSS 7 (A) 4.5 16:50:01 10° SW 16:53:05 88° SSE 16:54:42 24° NE
Cosmos 2322 4.4 16:49:52 10° SW 16:55:26 52° NW 17:01:01 10° NNE
Cosmos 2278 Rocket 3.2 16:50:40 10° NW 16:56:09 52° WSW 17:01:36 10° S
NOAA 12 4.0 16:52:22 10° SSE 16:57:37 68° ENE 17:02:53 10° NNW
BREEZE-M R/B 3.6 16:51:42 10° W 16:57:49 56° S 17:00:16 18° ESE
COBE Rocket 3.8 16:53:56 10° NNE 16:58:32 57° E 17:03:09 10° S
Lacrosse 5 rocket 1.4 16:54:20 10° SW 16:58:35 66° SSE 17:00:53 24° ENE
Cosmos 2251 Rocket 3.5 16:54:40 10° SSW 16:59:56 73° ESE 17:04:41 13° NNE
Cosmos 1782 Rocket 3.9 16:56:16 10° N 17:00:26 41° ENE 17:04:33 10° SE
Cosmos 2360 Rocket 3.5 16:57:00 10° WSW 17:02:09 34° NW 17:07:20 10° NNE
SL-4 R/B 2.0 17:01:19 10° WSW 17:05:03 66° S 17:07:13 25° E
Okean 2 Rocket 4.0 17:02:14 10° N 17:06:00 26° ENE 17:06:56 24° E
Sich 1 Rocket 4.0 17:02:18 10° N 17:06:26 38° ENE 17:10:32 10° SE
CZ-4B R/B 3.8 17:03:46 10° N 17:06:36 23° WNW 17:09:24 10° WSW
Envisat 2.9 17:03:03 10° SSE 17:08:06 70° ENE 17:13:11 10° NNW
FengYun 1-2 T 4.2 17:02:54 10° SE 17:08:15 57° ENE 17:13:40 10° N
Cosmos 2369 Rocket 2.8 17:03:17 10° NNW 17:08:24 34° NE 17:11:13 22° E
Aureole 1 Rocket 3.1 17:06:07 10° SSE 17:08:48 29° ESE 17:08:48 29° ESE
Cosmos 1980 Rocket 4.3 17:07:13 10° NW 17:10:16 14° NNW 17:13:21 10° NNE
NOSS 3-1 (C) 4.1 17:04:19 10° NW 17:11:01 50° NNE 17:16:31 20° E
Cosmos 1689 Rocket 4.2 17:09:05 10° N 17:11:41 26° WNW 17:14:16 10° SW
Cosmos 1743 3.1 17:08:25 10° N 17:12:05 40° ENE 17:15:45 10° SE
Cosmos 1862 Rocket 3.6 17:07:55 10° SSW 17:12:17 80° W 17:16:44 10° N
Cosmos 2344 4.3 17:04:11 10° NW 17:12:36 55° NNE 17:21:26 17° E
CZ-4 R/B 1.6 17:10:01 10° SE 17:13:40 41° ENE 17:17:19 10° N
STARLINK-67 2.4 17:12:14 10° W 17:15:01 89° S 17:15:28 58° E
Cosmos 1703 Rocket 3.8 17:11:19 10° SSE 17:15:35 46° E 17:18:22 20° NNE
SL-16 R/B 2.9 17:10:52 10° SSE 17:15:51 33° ESE 17:17:46 26° ENE
USA 267 4.3 17:10:04 10° SSE 17:16:19 46° SW 17:22:36 10° WNW
Lacrosse 4 Rocket 3.4 17:14:40 10° NNW 17:16:44 14° NNE 17:16:44 14° NNE
Cosmos 407 Rocket 4.3 17:12:47 10° SSE 17:17:18 31° ESE 17:18:34 28° ENE
H-2A R/B 4.1 17:22:36 10° NNE 17:22:36 10° NNE 17:22:37 10° NNE
USA 229 DEB 4.0 17:13:28 10° NW 17:20:23 53° NNE 17:24:57 23° E
USA 229 4.0 17:13:35 10° NW 17:20:29 53° NNE 17:25:01 23° E
YAOGAN 6 2.5 17:18:02 10° SSE 17:21:32 59° ENE 17:25:07 10° N
Okean O Rocket 4.3 17:18:37 10° SW 17:21:56 21° W 17:25:16 10° NW
BREEZE-M DEB (TANK) 4.4 17:20:25 10° W 17:25:06 26° SW 17:27:27 10° SSE
Cosmos 2237 Rocket 2.1 17:19:42 10° SSW 17:25:25 82° ESE 17:29:20 21° NE
NOSS 3-1 (A) 4.2 17:18:58 10° NW 17:25:34 47° NNE 17:29:38 26° E
NOSS 3-4 (A) 4.0 17:19:41 10° WSW 17:25:41 52° NNW 17:29:58 21° NE
NOSS 3-4 (C) 4.0 17:19:47 10° WSW 17:25:47 52° NNW 17:30:04 21° NE
Cosmos 2333 Rocket 3.0 17:20:52 10° SW 17:26:29 50° NW 17:31:14 15° NNE
Cosmos 1812 3.6 17:23:51 10° SSW 17:27:36 50° WNW 17:31:25 10° N
STARLINK-46 2.5 17:26:04 10° WSW 17:28:33 72° SW 17:28:33 72° SW
Cosmos 2242 Rocket 3.7 17:24:44 10° SSW 17:29:19 85° W 17:33:55 10° N
Cosmos 1092 Rocket 3.9 17:23:04 10° S 17:29:20 76° E 17:35:35 10° NNE
Cosmos 2322 Rocket 4.2 17:26:20 10° WNW 17:30:19 19° NNW 17:34:13 10° NNE
Cosmos 1867 3.5 17:31:04 10° NW 17:36:35 88° NE 17:41:04 16° SE
Cosmos 2219 Rocket 3.1 17:31:24 10° WSW 17:36:47 44° NW 17:41:08 16° NNE
Cosmos 1975 3.3 17:33:28 10° N 17:36:24 39° NNE 17:36:24 39° NNE
SL-16 R/B 4.3 17:35:57 10° WNW 17:39:38 17° NNW 17:43:02 11° NNE
BREEZE-M DEB (TANK) 3.7 17:36:31 10° WSW 17:40:13 26° SSW 17:41:22 21° SSE
Okean-O 3.3 17:37:13 10° S 17:41:34 56° WSW 17:45:58 10° NNW
Cosmos 1943 Rocket 2.2 17:37:09 10° NNW 17:42:46 58° NE 17:45:18 31° ESE
FALCON 9 DEB 4.2 17:43:41 10° SW 17:46:30 34° SSE 17:46:30 34° SSE
COSMO-SKYMED 1 2.5 17:47:53 52° NE 17:48:43 64° ESE 17:53:02 10° S
Ariane Rocket 3.5 17:52:12 39° NE 17:52:12 39° NE 17:56:04 10° N
CSL-04 Rocket 3.5 17:50:48 10° SSE 17:56:05 85° ENE 18:01:27 10° NNW
Cosmos 1441 Rocket 4.3 17:53:08 10° NNW 17:56:49 43° W 18:00:24 10° SSW
Cosmos 1980 4.0 17:51:14 10° SW 17:56:51 63° NW 18:00:06 26° NNE
S3M 3.9 17:51:44 10° N 17:57:57 65° ENE 18:04:04 10° SSE
SeaSat 1 3.2 17:59:06 35° NNE 17:59:06 35° NNE 18:02:48 10° NNW
COSMOS 2455 4.4 17:53:32 10° WNW 17:58:17 23° NNW 18:00:33 19° NNE
YAOGAN 1 2.5 17:54:00 10° SSE 17:58:20 89° SW 18:02:43 10° NNW
Uosat 12 SS-18 rocket 4.1 17:53:33 10° NW 17:58:40 82° NE 17:59:27 61° ESE
Okean 1-7 3.0 17:54:20 10° SSW 17:58:41 84° W 18:00:20 38° N
IRS-1A Rocket 4.5 18:01:35 47° E 18:02:32 52° ENE 18:08:16 10° N
ATLAS 2AS CENTAUR R/B 3.7 17:56:39 10° W 18:04:17 44° NNW 18:07:59 28° NE
Exosat Rocket 4.4 18:01:32 10° SW 18:06:23 45° NW 18:09:16 23° N
Cosmos 2263 4.2 18:02:02 10° NNW 18:07:46 57° NE 18:08:10 56° ENE
Cosmos 1428 Rocket 4.4 18:02:24 10° S 18:08:36 90° SE 18:14:55 10° N
RESURS DK-1 4.3 18:06:59 10° W 18:10:22 23° NW 18:11:40 20° NNW
Cosmos 1553 Rocket 4.0 18:04:01 10° NNW 18:10:25 86° W 18:16:51 10° S
Cosmos 1190 Rocket 3.8 18:06:22 10° SSW 18:11:31 69° ESE 18:11:37 69° ESE
CSL-04 Debris 4.3 18:08:28 10° S 18:13:54 72° WSW 18:19:21 10° NNW
COSMOS 2428 4.3 18:14:51 10° W 18:19:46 29° NW 18:22:47 19° N
USA 215 3.2 18:20:48 50° NE 18:22:37 76° NNW 18:29:08 10° W
Meteor 1-18 Rocket 4.2 18:19:42 10° SSW 18:25:25 84° WNW 18:27:36 40° N
Cosmos 2026 Rocket 4.3 18:21:35 10° SSW 18:27:36 62° WNW 18:33:39 10° N
Meteor 2-9 Rocket 4.5 18:23:51 10° NNW 18:29:44 72° W 18:35:30 10° S
Cosmos 614 Rocket 4.0 18:28:11 10° SSW 18:33:17 73° WNW 18:33:24 73° NW
SKYMED 2 4.4 18:36:33 47° NW 18:36:49 48° WNW 18:40:59 10° SW
Lacrosse 5 rocket 2.7 18:33:49 10° W 18:36:32 35° WNW 18:36:32 35° WNW
Cosmos 2315 Rocket 4.5 18:32:00 10° N 18:36:30 45° NNE 18:36:30 45° NNE
Okean 2 Rocket 4.1 18:40:01 10° NNW 18:44:19 46° W 18:44:32 46° WSW
SL-4 R/B 3.7 18:40:41 10° W 18:42:49 31° W 18:42:49 31° W
Cosmos 2360 Rocket 4.4 18:44:45 10° NW 18:47:58 15° NNW 18:49:18 14° N
CZ-4 R/B 3.7 18:45:47 10° SSW 18:48:53 23° W 18:51:59 10° NW
Cosmos 883 Rocket 4.4 18:42:52 10° N 18:48:58 82° N 18:48:58 82° N
Cosmos 2369 Rocket 2.5 18:47:15 10° NW 18:52:48 62° WSW 18:53:04 62° SW
Cosmos 1140 Rocket 4.2 18:47:45 10° SSW 18:51:25 47° SW 18:51:25 47° SW
Lacrosse 4 Rocket 4.2 18:52:46 10° NNW 18:53:04 12° NNW 18:53:04 12° NNW
Cosmos 1980 Rocket 4.4 18:53:48 10° NNW 18:55:27 13° N 18:55:27 13° N
H-2A R/B 4.5 19:03:13 12° N 19:03:13 12° N 19:03:30 10° N
Cosmos 407 Rocket 4.2 18:54:01 10° SW 18:58:49 51° WNW 18:58:49 51° WNW
SL-16 R/B 2.6 18:54:06 10° SW 18:59:40 58° NW 18:59:40 58° NW
NOSS 3-1 (C) 4.0 18:55:12 10° NW 19:02:29 75° SW 19:03:58 61° SSE
Cosmos 1655 Rocket 4.3 19:00:07 10° SSW 19:06:23 65° WNW 19:07:36 54° NNW
Cosmos 2237 Rocket 3.8 19:05:14 10° W 19:10:08 29° NW 19:11:10 27° NNW
USA 229 DEB 4.0 19:04:35 10° NW 19:11:42 66° SW 19:12:26 62° SSW
USA 229 4.0 19:04:42 10° NW 19:11:48 66° SW 19:12:30 63° SSW
Cosmos 2333 Rocket 4.2 19:08:08 10° WNW 19:12:11 19° NNW 19:13:15 18° N
NOSS 3-1 (A) 3.9 19:09:56 10° NW 19:17:06 83° WSW 19:17:06 83° WSW
Cosmos 2219 Rocket 4.3 19:18:37 10° WNW 19:22:16 17° NNW 19:22:51 17° NNW
Cosmos 1943 Rocket 3.7 19:21:19 10° NW 19:26:15 32° WSW 19:26:54 31° WSW
Cosmos 2344 4.4 19:18:40 10° NW 19:27:59 75° SW 19:31:31 51° SSE
ATLAS 2AS CENTAUR R/B 4.0 19:49:36 10° WNW 19:55:25 37° NNW 19:55:25 37° NNW
USA 215 4.5 20:08:09 37° WNW 20:08:09 37° WNW 20:11:53 10° WNW
